Location: *
(49.2667°N, 0.7478°W)
Time: 10:27:47
(UTC+00:00)

Daily predictions for brighter satellites

Satellite Brightness Start Highest point End
(mag) Time Altitude Azimuth Time Altitude Azimuth Time Altitude Azimuth
Unknown 3.5 19:47:06 10° WNW 19:51:01 81° SSW 19:54:55 10° ESE
Unknown 3.7 19:47:33 10° WNW 19:51:44 78° NNE 19:55:53 10° ESE
Unknown 3.7 19:49:12 10° WNW 19:53:22 79° NNE 19:57:31 10° ESE
Unknown 3.6 19:50:21 10° WNW 19:54:03 61° SSW 19:57:45 10° SE
CZ-2C R/B 3.3 19:50:09 10° SE 19:54:37 43° ENE 19:59:09 10° N
Unknown 3.7 19:50:53 10° WNW 19:55:03 80° NNE 19:59:13 10° ESE
Meteor 1-20 Rocket 4.5 19:50:45 10° S 19:56:24 53° E 20:01:59 10° NNE
Unknown 3.7 19:52:31 10° WNW 19:56:42 82° NNE 20:00:51 10° ESE
SJ-6B 3.5 19:53:25 10° S 19:57:16 58° W 20:01:16 10° NNW
SPOT 3 Rocket 4.0 19:52:19 10° S 19:57:29 66° WSW 20:02:39 10° NNW
Cosmos 1354 Rocket 4.4 19:52:54 10° SSW 19:58:14 74° WNW 20:03:36 10° NNE
Unknown 3.7 19:54:12 10° WNW 19:58:22 83° NNE 20:02:31 10° ESE
SL-08 RB Rocket 3.8 19:57:11 10° SSE 20:01:39 64° ENE 20:06:12 10° N
CZ-2C R/B 4.5 19:57:14 10° N 20:01:56 61° WNW 20:06:32 10° SSW
Unknown 3.6 19:57:50 10° WNW 20:02:00 88° SSW 20:06:05 10° ESE
BREEZE-M DEB (TANK) 1.6 19:59:57 10° W 20:02:32 86° SSW 20:04:44 10° E
Unknown 4.4 19:59:47 10° WNW 20:03:00 33° SW 20:06:12 10° SSE
Abrixas rocket 4.2 20:02:50 10° SSE 20:03:20 10° SE 20:03:40 10° SE
Cosmos 44 3.2 19:59:00 10° NW 20:03:34 66° NE 20:07:50 10° SE
Unknown 3.6 19:59:27 10° WNW 20:03:37 88° SSW 20:07:37 11° ESE
Okean 3 4.3 20:00:43 10° N 20:04:30 32° ENE 20:08:15 10° SE
Unknown 3.6 20:01:06 10° WNW 20:04:54 63° SSW 20:08:31 11° SE
Unknown 3.6 20:00:57 10° WNW 20:05:07 90° SSW 20:09:05 11° ESE
Unknown 3.6 20:02:31 10° WNW 20:06:42 90° ESE 20:10:37 11° ESE
Terra 3.9 20:04:49 10° ENE 20:06:43 12° NE 20:08:38 10° NNE
ADEOS Rocket 3.2 20:02:19 10° NNE 20:07:58 52° E 20:14:10 10° S
USA 267 3.9 20:03:30 10° ENE 20:09:54 59° NNW 20:16:18 10° W
Unknown 3.6 20:05:52 10° WNW 20:10:02 87° SSW 20:13:49 12° ESE
Unknown 3.6 20:07:29 10° WNW 20:11:39 86° SSW 20:15:22 13° ESE
CENTAUR R/B 4.4 20:05:11 10° NW 20:12:31 39° WSW 20:20:20 10° S
Unknown 3.6 20:09:11 10° WNW 20:13:20 84° SSW 20:17:00 13° ESE
Cosmos 1315 Rocket 4.2 20:10:38 10° NNW 20:14:31 41° W 20:18:24 10° SSW
Unknown 3.6 20:10:52 10° WNW 20:15:02 83° SSW 20:18:37 14° ESE
Spot 2 Rocket 3.8 20:11:02 10° SE 20:16:00 53° ENE 20:20:57 10° N
Cosmos 1869 Rocket 3.5 20:11:55 10° S 20:16:14 82° E 20:20:36 10° NNE
MetOp-B 4.5 20:12:05 10° SE 20:17:14 49° ENE 20:22:24 10° N
RESURS DK-1 2.5 20:14:41 10° SSW 20:18:51 80° WNW 20:23:03 10° NNE
Cosmos 1602 3.9 20:17:45 10° S 20:21:26 48° E 20:25:09 10° NNE
Unknown 3.6 20:17:28 10° WNW 20:21:37 77° SSW 20:24:57 15° ESE
Unknown 3.7 20:19:09 10° WNW 20:23:18 75° SSW 20:26:34 16° SE
Cosmos 1980 Rocket 4.3 20:20:31 10° N 20:23:37 15° NNE 20:26:43 10° ENE
Unknown 3.7 20:20:49 10° WNW 20:24:58 74° SSW 20:28:10 16° SE
Cosmos 1733 Rocket 3.8 20:21:39 10° SSE 20:25:31 33° E 20:29:25 10° NNE
Unknown 3.7 20:22:27 10° WNW 20:26:37 72° SSW 20:29:45 17° SE
Cosmos 1674 Rocket 4.4 20:23:02 10° N 20:27:03 34° ENE 20:29:57 16° SE
ATLAS 2AS CENTAUR R/B 4.2 20:20:28 10° WSW 20:28:11 47° NNW 20:35:51 10° NE
Unknown 3.7 20:24:10 10° WNW 20:28:18 71° SSW 20:31:23 17° SE
CZ-2C R/B 3.4 20:24:42 10° NNE 20:29:20 31° E 20:33:27 13° SSE
S3M 4.4 20:24:20 10° SSE 20:30:13 42° E 20:36:02 10° NNE
Unknown 3.7 20:27:28 10° WNW 20:31:36 68° SSW 20:34:33 18° SE
Starlink (trailer) 3.7 20:29:08 10° WNW 20:33:15 66° SSW 20:36:08 19° SE
Cosmos 1943 4.4 20:28:13 10° SW 20:33:40 47° NW 20:39:12 10° NNE
Cosmos 2221 Rocket 3.7 20:30:15 10° NNW 20:34:42 81° W 20:39:06 10° S
Unknown 3.8 20:30:50 10° WNW 20:34:58 65° SSW 20:37:47 19° SE
Meteor 2-4 Rocket 3.8 20:30:03 10° N 20:35:21 53° ENE 20:39:31 16° SSE
GP-B 3.9 20:32:07 10° NNE 20:36:11 33° E 20:38:48 18° SE
Unknown 3.8 20:32:29 10° WNW 20:36:36 63° SSW 20:39:21 20° SE
Meteor 1-18 Rocket 4.4 20:31:10 10° NNW 20:36:45 73° W 20:42:22 10° S
Cosmos 44 Rocket 3.9 20:34:03 10° NNW 20:38:42 44° NE 20:41:59 17° ESE
Aureole 2 Rocket 2.2 20:39:08 10° NNW 20:41:48 46° ENE 20:42:46 29° ESE
MetOp-A 4.5 20:36:43 10° S 20:42:02 67° WSW 20:47:24 10° NNW
Unknown 3.9 20:39:08 10° WNW 20:43:13 58° SSW 20:45:44 22° SE
H-2A R/B 3.2 20:38:38 10° SSW 20:43:26 41° W 20:48:10 10° NNW
MTI 3.9 20:40:24 10° NNE 20:43:31 51° E 20:45:45 17° S
Cosmos 1745 Rocket 4.0 20:38:30 10° N 20:44:37 63° ENE 20:49:36 16° SSE
Unknown 3.9 20:40:49 10° WNW 20:44:53 57° SSW 20:47:20 22° SE
Unknown 4.0 20:42:27 10° WNW 20:46:31 55° SSW 20:48:55 23° SE
Unknown 4.0 20:44:09 10° WNW 20:48:12 54° SSW 20:50:32 23° SE
Unknown 4.1 20:45:57 10° WNW 20:49:58 51° SSW 20:52:14 23° SSE
ASTEX 1 3.4 20:45:13 10° N 20:50:11 65° E 20:54:40 12° S
Unknown 4.0 20:47:26 10° WNW 20:51:28 51° SSW 20:53:41 24° SSE
ARGOS 4.4 20:46:36 10° SSW 20:51:36 39° W 20:56:38 10° NNW
Unknown 4.1 20:49:12 10° WNW 20:53:13 49° SW 20:55:22 24° SSE
Cosmos 1777 Rocket 4.1 20:48:10 10° SSW 20:53:27 81° WNW 20:58:46 10° NNE
Unknown 4.0 20:49:33 10° WNW 20:53:36 51° SSW 20:55:45 25° SSE
Unknown 4.1 20:50:49 10° WNW 20:54:49 49° SW 20:56:54 25° SSE
Cosmos 923 Rocket 4.0 20:50:40 10° NNW 20:56:03 84° ENE 20:59:41 21° SSE
Unknown 4.1 20:52:30 10° WNW 20:56:30 48° SW 20:58:32 25° SSE
EXPRESS MD2 2.7 20:52:47 10° W 20:57:07 85° SSW 20:58:11 35° ESE
Cosmos 1500 4.0 20:56:09 27° SE 20:57:15 32° E 21:00:44 10° NNE
Unknown 4.2 20:57:27 10° WNW 21:01:25 44° SW 21:03:16 26° SSE
Unknown 4.3 20:59:08 10° WNW 21:03:06 43° SW 21:04:54 27° SSE
Unknown 4.3 21:00:50 10° WNW 21:04:46 42° SW 21:06:30 27° SSE
Unknown 4.5 21:01:13 10° WNW 21:04:58 37° SW 21:06:36 25° S
Cosmos 1898 Rocket 4.3 21:03:58 25° SE 21:05:40 31° E 21:10:14 10° NE
Unknown 4.3 21:02:30 10° WNW 21:06:25 41° SW 21:08:05 27° SSE
Cosmos 1680 Rocket 3.5 21:04:05 10° NNW 21:09:23 84° ENE 21:12:22 26° SSE
Unknown 4.4 21:05:47 10° WNW 21:09:40 39° SW 21:11:14 28° S
CARTOSAT-1 4.0 21:08:35 29° ESE 21:10:19 46° ENE 21:14:27 10° N
Unknown 4.5 21:07:28 10° WNW 21:11:20 38° SW 21:12:52 28° S
Resurs 01 Rocket 3.4 21:08:22 10° SSW 21:12:12 29° W 21:16:04 10° NW
Unknown 4.5 21:09:04 10° WNW 21:12:52 37° SW 21:14:17 28° S
Unknown 4.5 21:09:09 10° WNW 21:13:00 37° SW 21:14:27 28° S
Landsat 7 3.8 21:10:48 27° SSE 21:13:22 73° ENE 21:18:08 10° N
Unknown 4.5 21:10:45 10° WNW 21:14:36 37° SW 21:15:59 28° S
EO 1 Del DPAF 3.3 21:11:37 10° NNE 21:15:20 51° E 21:16:24 38° SSE
DMSP B5D2-2 4.4 21:11:54 10° N 21:17:07 67° WNW 21:22:19 10° SSW
Unknown 4.5 21:13:58 10° WNW 21:17:49 37° SW 21:19:06 29° S
Cosmos 2098 Rocket 3.2 21:14:36 10° N 21:18:33 61° E 21:20:31 33° SSE
MOS 1 Rocket 4.3 21:15:32 10° NNE 21:20:25 36° E 21:21:59 30° SE
Cosmos 1908 Rocket 3.8 21:18:52 34° SSE 21:20:27 51° E 21:24:48 10° NNE
Meteor 1-13 Rocket 4.2 21:16:02 10° NNW 21:21:40 83° WSW 21:25:19 23° S
SL-24 R/B 4.3 21:20:33 10° NNE 21:24:29 39° E 21:24:49 38° ESE
Cosmos 1340 4.3 21:26:11 20° ENE 21:26:11 20° ENE 21:28:18 10° NE
BREEZE M DEB (TANK) 4.3 21:27:47 20° E 21:27:47 20° E 21:30:21 10° ENE
Cosmos 2278 4.5 21:22:43 10° NNW 21:28:05 41° NE 21:30:42 26° ESE
Meteor 1-5 Rocket 4.2 21:25:42 16° S 21:30:23 84° E 21:36:03 10° NNE
Cosmos 2082 Rocket 3.6 21:31:15 20° E 21:31:15 20° E 21:34:40 10° NE
NOSS 5 (C) 4.5 21:31:24 10° NW 21:34:40 83° NE 21:35:22 57° SE
BREEZE-M DEB (TANK) 4.0 21:22:53 10° W 21:37:10 87° S 21:39:06 33° E
SPOT 1/Viking Rocket 3.7 21:34:50 29° S 21:37:35 73° WSW 21:42:50 10° NNW
GENESIS II 4.1 21:34:21 14° SSW 21:37:43 76° SE 21:41:50 10° NE
SL-16 R/B 4.4 21:34:19 10° N 21:37:57 17° NE 21:41:34 10° ENE
Cosmos 1066 Rocket 4.3 21:33:12 10° N 21:38:36 57° ENE 21:40:28 38° SE
Meteor 1-23 Rocket 4.2 21:33:11 10° N 21:38:58 78° ENE 21:41:27 35° SSE
Cosmos 1833 Rocket 3.4 21:38:47 31° ESE 21:39:03 31° ESE 21:43:58 10° NE
Cosmos 1536 2.7 21:37:55 46° S 21:39:03 78° E 21:43:09 10° NNE
SJ 16-02 1.9 21:39:26 38° E 21:39:26 38° E 21:43:24 10° NE
SL-08 ROCKET BODY 4.4 21:34:46 10° NNW 21:40:42 76° W 21:44:01 27° S
ERS-1 Rocket 3.2 21:38:22 30° S 21:40:52 68° WSW 21:45:54 10° NNW
Terra 1.8 21:42:09 43° SE 21:43:38 73° ENE 21:48:24 10° N
SPOT 5 2.6 21:43:30 43° S 21:44:53 78° WSW 21:49:15 10° NNW
Okean 2 4.3 21:42:14 10° N 21:46:00 33° ENE 21:46:13 33° E
Aureole 3 Rocket 3.1 21:44:19 27° SSW 21:46:16 58° W 21:49:33 10° N
Meteor 2-16 Rocket 4.4 21:40:43 10° N 21:46:54 87° ENE 21:49:45 34° S
Cosmos 1697 Rocket 2.9 21:42:21 10° NNW 21:47:59 61° ENE 21:50:03 38° ESE
Cosmos 1346 Rocket 3.3 21:49:43 40° ENE 21:49:43 40° ENE 21:52:54 10° NNE
Cosmos 883 Rocket 4.5 21:44:58 22° S 21:49:16 89° WNW 21:55:39 10° N
USA 267 4.2 21:46:12 10° ENE 21:52:21 45° N 21:58:30 10° WNW
COSMOS 2406 3.1 21:48:56 16° SSW 21:53:31 84° ESE 21:59:17 10° NNE
Cosmos 1656 3.7 21:48:10 10° NNW 21:53:53 81° WSW 21:55:53 42° SSE
Cosmos 1666 2.8 21:56:20 58° ENE 21:56:20 58° ENE 21:59:55 10° NNE
USA 32 3.9 21:52:59 10° N 21:58:16 79° E 21:59:46 48° SSE
Cosmos 1782 Rocket 3.5 21:57:54 60° SSE 21:58:32 71° E 22:02:58 10° NNE
Cosmos 1937 Rocket 3.5 21:57:42 46° SSE 21:59:00 61° ESE 22:04:16 10° NNE
Mayak 0.4 21:56:38 10° NE 21:59:02 22° ENE 21:59:02 22° ENE
Cosmos 1025 Rocket 4.4 21:57:55 10° NNE 22:01:34 25° ENE 22:01:44 25° ENE
IGS 5A 4.5 22:02:02 31° SW 22:03:18 40° W 22:07:14 10° NNW
Cosmos 990 Rocket 3.9 22:05:34 38° SSW 22:07:40 86° ESE 22:12:54 10° NNE
Cosmos 1980 Rocket 2.6 22:03:30 10° NNW 22:09:00 52° NE 22:10:40 39° ESE
CZ-2C R/B 3.7 22:04:50 10° N 22:09:45 43° WNW 22:14:45 10° SW
Cosmos 1709 Rocket 4.3 22:05:04 10° NNW 22:11:04 59° W 22:14:01 30° SSW
ARGOS Delta rocket 4.4 22:10:46 44° ESE 22:11:48 51° ENE 22:17:01 10° N
Cosmos 2369 3.6 22:08:34 10° NNW 22:14:15 81° WSW 22:15:41 52° SSE
Cosmos 2315 Rocket 4.1 22:11:14 28° SSW 22:14:49 76° W 22:21:12 10° N
Cosmos 2074 Rocket 4.0 22:11:20 10° N 22:17:38 70° ENE 22:19:27 48° SE
Cosmos 2184 Rocket 4.0 22:12:32 10° N 22:18:43 69° ENE 22:20:23 49° SE
Cosmos 44 Rocket 4.2 22:15:49 10° NW 22:20:08 34° WSW 22:20:41 33° SW
Cosmos 158 Rocket 4.5 22:17:32 10° NNW 22:22:39 53° WSW 22:23:54 43° SSW
Cosmos 1975 Rocket 3.4 22:18:38 10° NNW 22:22:59 58° W 22:23:34 53° SW
NOSS 3-1 (C) 4.1 22:19:49 10° NW 22:27:08 72° NE 22:30:56 36° ESE
Thor Agena Rocket 4.2 22:22:31 10° N 22:27:30 52° WNW 22:30:25 24° SW
Landsat 4 4.2 22:33:51 10° N 22:37:20 59° NW 22:37:20 59° NW
CZ-4C R/B 4.3 22:42:30 12° E 22:42:30 12° E 22:43:12 10° ENE
Cosmos 1975 3.3 22:44:46 54° NNE 22:44:46 54° NNE 22:47:59 10° NNE
Cosmos 2360 4.1 22:38:57 10° NNW 22:44:41 81° WSW 22:45:30 66° S
Cosmos 1048 Rocket 3.9 22:42:12 10° NNW 22:47:20 73° ENE 22:47:42 70° E
Cosmos 1898 Rocket 4.5 22:44:11 19° WSW 22:47:35 44° WNW 22:52:38 10° NNE
Okean 2 Rocket 3.2 22:53:16 68° WNW 22:53:16 68° WNW 22:57:34 10° N
Cosmos 1300 Rocket 3.8 22:54:12 66° NNE 22:54:12 66° NNE 22:58:03 10° NNE
Cosmos 2322 Rocket 3.2 22:49:50 10° NNW 22:55:05 37° NE 22:56:43 31° E
Nimbus 7 Rocket 4.4 22:50:33 10° NNE 22:56:37 70° ESE 22:57:27 62° SSE
YAOGAN 11 4.4 22:56:55 59° NE 22:56:55 59° NE 23:01:09 10° N
Meteor 2-15 4.3 22:58:19 63° S 22:59:23 86° E 23:05:32 10° N
Cosmos 1378 4.1 22:56:03 10° NNW 22:58:45 45° NNW 22:58:45 45° NNW
Cosmos 1340 4.1 23:00:56 33° WNW 23:00:56 33° WNW 23:04:18 10° N
Cosmos 1743 3.7 23:02:08 43° NW 23:02:08 43° NW 23:05:15 10° N
Cosmos 1295 Rocket 4.5 22:57:53 10° N 23:04:16 70° ENE 23:05:19 59° SE
Meteor 1-21 4.1 23:00:44 10° NNW 23:06:26 82° W 23:06:59 72° SSW
Cosmos 1125 Rocket 3.8 23:10:54 54° E 23:10:54 54° E 23:15:28 10° NNE
BREEZE-M DEB (TANK) 4.3 23:05:31 10° WNW 23:10:36 83° NNE 23:29:34 10° ESE
Cosmos 1610 Rocket 4.4 23:04:46 10° NNW 23:10:54 75° W 23:11:55 61° SSW
Cosmos 2278 4.4 23:06:59 10° NW 23:12:13 40° WSW 23:12:35 39° WSW
Cosmos 1536 Rocket 4.1 23:07:52 10° NNW 23:11:49 55° WNW 23:11:49 55° WNW
Cosmos 1842 4.3 23:10:07 10° NNW 23:13:01 44° NW 23:13:01 44° NW
Cosmos 2082 Rocket 2.2 23:13:04 58° SW 23:14:08 76° WNW 23:19:50 10° NNE
ERS-2 4.2 23:16:55 22° NE 23:16:55 22° NE 23:19:08 10° N
ALOS 2 2.9 23:17:06 63° NNE 23:17:06 63° NNE 23:20:55 10° N
SJ 16-02 3.1 23:16:24 22° W 23:17:59 28° WNW 23:21:50 10° N
SL-8 Rocket 4.3 23:13:21 10° N 23:19:35 55° ENE 23:20:35 50° ESE
Meteor 2-9 Rocket 4.1 23:19:47 73° SSW 23:20:24 88° WNW 23:26:19 10° NNE
Terra 4.0 23:21:02 15° WSW 23:21:55 16° W 23:24:50 10° NW
USA 229 DEB 3.9 23:15:06 10° NW 23:22:11 60° WSW 23:23:25 54° SSW
USA 229 3.9 23:15:12 10° NW 23:22:17 61° WSW 23:23:31 54° SSW
Cosmos 1833 Rocket 3.4 23:20:26 31° WSW 23:22:46 50° NW 23:28:17 10° NNE
SL-16 R/B 2.4 23:17:37 10° NNW 23:23:16 62° ENE 23:24:00 57° E
Helios 1A 4.0 23:24:29 39° WNW 23:24:29 39° WNW 23:27:43 10° NNW
SL-27 R/B 4.4 23:27:16 28° NNE 23:27:16 28° NNE 23:29:06 10° NNE
NOSS 3-1 (A) 3.9 23:18:11 10° NW 23:25:39 86° SW 23:28:05 51° SE
Lacrosse 4 Rocket 4.1 23:28:21 10° N 23:30:50 15° NNE 23:33:11 10° ENE
Helios 1B rocket 3.4 23:26:52 10° NNE 23:29:48 44° NNE 23:29:48 44° NNE
Cosmos 1697 Rocket 4.1 23:26:59 10° NW 23:31:33 25° WSW 23:31:46 25° WSW
USA 267 3.6 23:29:11 14° E 23:34:50 61° NNE 23:41:15 10° WNW
Cosmos 1707 4.0 23:31:40 10° N 23:34:13 39° N 23:34:13 39° N
Mayak -0.1 23:31:52 10° N 23:35:36 38° WNW 23:35:36 38° WNW
Cosmos 1025 Rocket 4.3 23:35:15 10° NNW 23:38:37 35° WNW 23:38:37 35° WNW
Cosmos 494 Rocket 4.0 23:36:01 10° NNW 23:40:47 73° WNW 23:40:47 73° WNW
Cosmos 2154 Rocket 4.4 23:36:49 10° NNW 23:42:49 49° W 23:43:47 45° WSW
Cosmos 2218 Rocket 4.0 23:36:59 10° N 23:43:21 69° ENE 23:44:15 61° ESE
Cosmos 962 Rocket 4.4 23:37:59 10° NNW 23:44:05 71° W 23:44:43 66° SW
Cosmos 2360 Rocket 3.0 23:42:26 10° NNW 23:47:50 45° NE 23:49:10 38° E
Cosmos 1959 Rocket 4.4 23:44:03 10° N 23:50:15 74° E 23:50:54 68° SE
Cosmos 1980 Rocket 3.3 23:47:55 10° NW 23:52:25 30° W 23:52:25 30° W
